Portland, OR

2:35 AM PST on December 15, 2019 (GMT -0800)
Portland International

Weather History for KPDX - November, 2019

Change the Weather History Date:

Tuesday, November 19, 2019

  Actual Average Record
Temperature  
Mean Temperature 52 °F 46 °F  
Max Temperature 55 °F 52 °F 62 °F (1965)
Min Temperature 49 °F 40 °F 25 °F (1956)
Degree Days  
Heating Degree Days 13 19  
Month to date heating degree days 288 321  
Since 1 July heating degree days 785 739  
Cooling Degree Days 0 0  
Month to date cooling degree days 0 0  
Year to date cooling degree days 564 424  
Moisture  
Dew Point 46 °F    
Average Humidity 80    
Maximum Humidity 93    
Minimum Humidity 66    
Precipitation  
Precipitation 0.49 in 0.20 in 2.69 in (1996)
Month to date precipitation 1.22 3.41  
Year to date precipitation 21.98 28.32  
Sea Level Pressure  
Sea Level Pressure 29.86 in    
Wind  
Wind Speed 6 mph (NW)    
Max Wind Speed 15 mph    
Max Gust Speed 18 mph    
Visibility 8 miles    
Events Rain    
T = Trace of Precipitation, MM = Missing Value Source: NWS Daily Summary

Daily Weather History Graph

Daily Weather History Graph

Search for Another Location

Airport or City:

Astronomy

Nov. 19, 2019 Rise Set
Actual Time 7:15 AM PST 4:36 PM PST
Civil Twilight 6:42 AM PST 5:08 PM PST
Nautical Twilight 6:06 AM PST 5:44 PM PST
Astronomical Twilight 5:31 AM PST 6:20 PM PST
Moon 11:42 PM PST (11/19) 1:26 PM PST (11/19)
Length of Visible Light 10h 26m
Length of Day
9h 21m
Waning Gibbous, 50% of the Moon is Illuminated
Nov 19
Waning Gibbous
Nov 19
Last Quarter
Nov 26
New
Dec 3
First Quarter
Dec 11
Full

Hourly Weather History & Observations

Time (PST) Temp. Windchill Dew Point Humidity Pressure Visibility Wind Dir Wind Speed Gust Speed Precip Events Conditions
12:53 AM 53.1 °F - 48.0 °F 83% 29.75 in 10.0 mi SSW 11.5 mph - N/A   Mostly Cloudy
1:53 AM 53.1 °F - 48.0 °F 83% 29.73 in 10.0 mi South 6.9 mph - 0.02 in   Overcast
2:53 AM 52.0 °F - 48.9 °F 89% 29.73 in 9.0 mi SSE 5.8 mph - 0.01 in Rain Light Rain
3:33 AM 52.0 °F - 48.9 °F 89% 29.73 in 5.0 mi NNE 3.5 mph - 0.05 in Rain Rain
3:45 AM 51.1 °F - 48.9 °F 92% 29.73 in 2.5 mi Calm Calm - 0.12 in Rain Heavy Rain
3:53 AM 51.1 °F - 48.9 °F 92% 29.73 in 3.0 mi NE 3.5 mph - 0.17 in Rain Heavy Rain
4:02 AM 51.1 °F - 48.9 °F 92% 29.73 in 3.0 mi Calm Calm - 0.04 in Rain Rain
4:39 AM 51.1 °F - 48.9 °F 92% 29.73 in 3.0 mi Calm Calm - 0.21 in Rain Rain
4:53 AM 52.0 °F - 48.9 °F 89% 29.74 in 4.0 mi NW 3.5 mph - 0.25 in Rain Rain
5:53 AM 48.9 °F - 46.9 °F 93% 29.74 in 7.0 mi West 5.8 mph - 0.04 in   Mostly Cloudy
6:53 AM 50.0 °F - 48.0 °F 93% 29.75 in 10.0 mi West 4.6 mph - N/A   Mostly Cloudy
7:53 AM 51.1 °F - 48.0 °F 89% 29.76 in 10.0 mi NW 4.6 mph - N/A   Mostly Cloudy
8:53 AM 51.1 °F - 48.9 °F 92% 29.80 in 10.0 mi Calm Calm - N/A   Mostly Cloudy
9:31 AM 52.0 °F - 48.0 °F 86% 29.81 in 6.0 mi WNW 5.8 mph - 0.00 in Rain Light Rain
9:53 AM 52.0 °F - 48.0 °F 86% 29.82 in 10.0 mi WNW 3.5 mph - 0.00 in   Overcast
10:53 AM 53.1 °F - 46.9 °F 80% 29.83 in 10.0 mi Calm Calm - N/A   Overcast
11:53 AM 53.1 °F - 46.0 °F 77% 29.84 in 10.0 mi WNW 4.6 mph - N/A   Overcast
12:53 PM 54.0 °F - 45.0 °F 72% 29.84 in 10.0 mi WNW 10.4 mph - N/A   Overcast
1:53 PM 55.0 °F - 45.0 °F 69% 29.86 in 10.0 mi WNW 9.2 mph - N/A   Mostly Cloudy
2:05 PM 55.0 °F - 45.0 °F 69% 29.86 in 10.0 mi WNW 8.1 mph - N/A   Overcast
2:53 PM 53.1 °F - 45.0 °F 74% 29.88 in 10.0 mi NW 11.5 mph - N/A   Overcast
3:53 PM 53.1 °F - 45.0 °F 74% 29.91 in 10.0 mi NW 3.5 mph - N/A   Overcast
4:53 PM 52.0 °F - 46.0 °F 80% 29.93 in 10.0 mi NW 6.9 mph - N/A   Overcast
5:03 PM 52.0 °F - 45.0 °F 77% 29.93 in 10.0 mi NW 4.6 mph - N/A   Overcast
5:35 PM 51.1 °F - 45.0 °F 80% 29.94 in 10.0 mi NW 5.8 mph - N/A   Overcast
5:53 PM 51.1 °F - 45.0 °F 80% 29.95 in 10.0 mi NW 6.9 mph - N/A   Overcast
6:53 PM 51.1 °F - 44.1 °F 77% 29.97 in 10.0 mi NW 8.1 mph - N/A   Overcast
7:53 PM 50.0 °F - 44.1 °F 80% 29.99 in 10.0 mi NW 8.1 mph - N/A   Overcast
8:53 PM 50.0 °F - 44.1 °F 80% 30.01 in 10.0 mi NNW 8.1 mph - N/A   Overcast
9:53 PM 48.0 °F - 43.0 °F 83% 30.03 in 10.0 mi NW 10.4 mph - N/A   Mostly Cloudy
10:32 PM 46.4 °F 42.4 °F 42.8 °F 87% 30.04 in 10.0 mi NW 8.1 mph - N/A   Mostly Cloudy
10:53 PM 48.0 °F - 42.1 °F 80% 30.05 in 10.0 mi WNW 5.8 mph - N/A   Mostly Cloudy
11:53 PM 46.9 °F - 42.1 °F 83% 30.05 in 10.0 mi WNW 5.8 mph - N/A   Partly Cloudy